Norfolk, NE

4:44 AM CST on December 08, 2019 (GMT -0600)
Stefan Memorial

Weather History for KOFK - October, 2019

Change the Weather History Date:

Wednesday, October 9, 2019

  Actual Average Record
Temperature  
Mean Temperature 62 °F 54 °F  
Max Temperature 74 °F 67 °F 92 °F (1928)
Min Temperature 50 °F 41 °F 23 °F (1964)
Degree Days  
Heating Degree Days 3 12  
Month to date heating degree days 103 93  
Since 1 July heating degree days 133 235  
Cooling Degree Days 0 0  
Month to date cooling degree days 0 8  
Year to date cooling degree days 949 914  
Growing Degree Days 14 (Base 50)    
Moisture  
Dew Point 51 °F    
Average Humidity 71    
Maximum Humidity 93    
Minimum Humidity 49    
Precipitation  
Precipitation 0.06 in 0.08 in 1.39 in (2018)
Month to date precipitation 1.56 0.72  
Year to date precipitation 23.59 23.94  
Snow  
Snow 0.00 in 0.10 in - ()
Month to date snowfall 0.0 0.1  
Since 1 July snowfall 0.0 0.1  
Since 1 September snowfall 0.0 0.1  
Snow Depth 0.00 in    
Sea Level Pressure  
Sea Level Pressure 29.77 in    
Wind  
Wind Speed 15 mph (SE)    
Max Wind Speed 28 mph    
Max Gust Speed 37 mph    
Visibility 8 miles    
Events Rain    
T = Trace of Precipitation, MM = Missing Value Source: NWS Daily Summary

Daily Weather History Graph

Daily Weather History Graph

Search for Another Location

Airport or City:

Astronomy

Oct. 09, 2019 Rise Set
Actual Time 7:35 AM CDT 6:58 PM CDT
Civil Twilight 7:07 AM CDT 7:26 PM CDT
Nautical Twilight 6:34 AM CDT 7:58 PM CDT
Astronomical Twilight 6:02 AM CDT 8:30 PM CDT
Moon 5:35 PM CDT (10/9) 3:17 AM CDT (10/9)
Length of Visible Light 12h 18m
Length of Day
11h 22m
Waxing Gibbous, 85% of the Moon is Illuminated
Oct 9
Waxing Gibbous
Oct 13
Full
Oct 21
Last Quarter
Oct 27
New
Nov 4
First Quarter

Hourly Weather History & Observations

Time (CDT) Temp. Dew Point Humidity Pressure Visibility Wind Dir Wind Speed Gust Speed Precip Events Conditions
12:56 AM 57.0 °F 46.0 °F 67% 29.79 in 10.0 mi SSE 12.7 mph - N/A   Clear
1:56 AM 57.0 °F 46.9 °F 69% 29.78 in 10.0 mi SSE 12.7 mph - N/A   Clear
2:56 AM 55.9 °F 46.9 °F 72% 29.77 in 10.0 mi South 15.0 mph 21.9 mph N/A   Clear
3:56 AM 55.9 °F 46.9 °F 72% 29.76 in 10.0 mi SSE 15.0 mph - N/A   Clear
4:56 AM 55.0 °F 46.9 °F 74% 29.76 in 10.0 mi SSE 12.7 mph - N/A   Clear
5:56 AM 54.0 °F 46.0 °F 75% 29.77 in 10.0 mi SSE 11.5 mph - N/A   Clear
7:56 AM 54.0 °F 46.0 °F 75% 29.76 in 10.0 mi SSE 13.8 mph - N/A   Clear
8:56 AM 57.9 °F 46.9 °F 67% 29.77 in 10.0 mi South 16.1 mph - N/A   Clear
9:56 AM 63.0 °F 46.9 °F 56% 29.78 in 10.0 mi South 23.0 mph 29.9 mph N/A   Clear
10:56 AM 66.9 °F 48.9 °F 52% 29.77 in 10.0 mi South 16.1 mph 31.1 mph N/A   Clear
11:56 AM 72.0 °F 51.1 °F 48% 29.76 in 10.0 mi SSW 15.0 mph 24.2 mph N/A   Mostly Cloudy
12:56 PM 68.0 °F 52.0 °F 56% 29.75 in 10.0 mi SE 26.5 mph 34.5 mph N/A   Clear
1:56 PM 68.0 °F 53.1 °F 59% 29.73 in 10.0 mi SE 21.9 mph 29.9 mph N/A   Clear
2:56 PM 69.1 °F 54.0 °F 58% 29.71 in 10.0 mi SE 16.1 mph 27.6 mph N/A   Scattered Clouds
3:56 PM 66.9 °F 54.0 °F 63% 29.71 in 10.0 mi SSE 18.4 mph 27.6 mph N/A   Scattered Clouds
4:56 PM 66.0 °F 54.0 °F 65% 29.71 in 10.0 mi SSE 10.4 mph - N/A   Overcast
5:42 PM 64.9 °F 54.0 °F 68% 29.74 in 10.0 mi SSE 9.2 mph - N/A   Overcast
5:56 PM 64.0 °F 54.0 °F 70% 29.73 in 10.0 mi ESE 16.1 mph 24.2 mph N/A   Overcast
6:40 PM 57.9 °F 54.0 °F 87% 29.76 in 2.0 mi ESE 12.7 mph 23.0 mph 0.00 in Rain Light Rain
6:56 PM 57.0 °F 55.0 °F 93% 29.77 in 3.0 mi ESE 15.0 mph - 0.00 in Rain Light Rain
7:16 PM 57.0 °F 54.0 °F 89% 29.78 in 4.0 mi ESE 11.5 mph - 0.00 in   Overcast
7:41 PM 55.9 °F 54.0 °F 93% 29.78 in 3.0 mi ESE 10.4 mph - 0.00 in   Overcast
7:52 PM 55.4 °F 53.6 °F 94% 29.78 in 2.5 mi ESE 12.7 mph - 0.00 in   Overcast
7:56 PM 55.9 °F 54.0 °F 93% 29.78 in 2.5 mi ESE 11.5 mph - 0.00 in   Overcast
8:56 PM 55.9 °F 54.0 °F 93% 29.80 in 2.0 mi SE 12.7 mph - N/A   Overcast
9:23 PM 55.9 °F 54.0 °F 93% 29.80 in 3.0 mi SE 12.7 mph - N/A   Overcast
9:56 PM 55.9 °F 54.0 °F 93% 29.80 in 5.0 mi ESE 10.4 mph - N/A   Overcast
10:56 PM 55.9 °F 54.0 °F 93% 29.81 in 5.0 mi SSE 8.1 mph - 0.00 in Rain Light Rain
11:56 PM 50.0 °F 48.9 °F 96% 29.84 in 6.0 mi NW 9.2 mph - 0.05 in Rain Light Rain